KABI

Abilene Regional Airport

Airport
ICAO code
KABI
IATA Code
ABI
Summary
ICAO Region
NAM
ICAO Territory
Location

Abilene, Texas,

Serving
Abilene
Elevation
1791 ft
Coordinates
32° 24' 40" N , 99° 40' 54" W
KCC
Airport LOS
Parallel Runway Operation
Metar
Observation
KABI 301952Z 35011KT 10SM OVC011 M05/M08 A3027 RMK AO2 UPB11E18 SLP264 P0000 I1000 T10501078
Station
Abilene, Abilene Regional Airport
Date/Time
2023-01-30 19:52:00
Wind direction
350°
Wind speed
11 kts
Lowest cloud amount
overcast
Temperature
-5°C
Dew point
-7.8°C
Humidity
80%
Weather condition
n/a

Description

Abilene Regional Airport is a public use airport located 5 km southeast of the central business district of Abilene, in Taylor County, Texas.

Climatology

Humid “subtropical” climate (Köppen climate classification Cfa) - characterized by hot, humid summers and cool winters. Significant amounts of precipitation occur in all seasons in most areas. Winter rainfall (and sometimes snowfall) is associated with large storms that the westerlies steer from west to east. Most summer rainfall occurs during thunderstorms and occasional tropical storms (hurricanes).

Airport map

Aerial View

SKYbrary Partners:

Safety knowledge contributed by: